Regional Weather Roundup
Issued by NWS Raleigh/Durham, NC

Home | Current Version | Previous Version | Text Only | Print | Product List | Glossary On
Versions: 1 2 3 4 5 6 7 8 9 10 11 12 13 14 15 16 17 18 19 20 21 22 23 24 25 26 27
000
ASUS42 KRAH 020510
RWRRAH
NORTH CAROLINA WEATHER ROUNDUP
NATIONAL WEATHER SERVICE RALEIGH NC
100 AM EDT MON MAY 02 2016

NOTE: "FAIR" INDICATES FEW OR NO CLOUDS BELOW 12,000 FEET WITH NO
SIGNIFICANT WEATHER AND/OR OBSTRUCTIONS TO VISIBILITY.

NCZ001-053-055-056-065-067-020600-
WESTERN NORTH CAROLINA

CITY           SKY/WX    TMP DP  RH WIND       PRES   REMARKS
ASHEVILLE      CLOUDY    65  61  87 CALM      30.05R
JEFFERSON      MOCLDY    61  57  87 SW6       30.06F
MORGANTON      CLOUDY    64  64 100 CALM      30.06S FOG
HICKORY        CLOUDY    66  64  93 SW5       30.01S
RUTHERFORDTON  CLOUDY    65  65 100 CALM      30.03R
MOUNT AIRY     CLOUDY    65  63  93 CALM      30.03R
BOONE          PTCLDY    60  60 100 CALM      30.08S
$$

NCZ021-022-025-041-071-084-088-020600-
CENTRAL NORTH CAROLINA

CITY           SKY/WX    TMP DP  RH WIND       PRES   REMARKS
CHARLOTTE      CLOUDY    69  63  81 SW9       30.04R THUNDER
GREENSBORO     LGT RAIN  68  67  96 W5        30.00R
WINSTON-SALEM  CLOUDY    68  66  93 SW3       30.01S
RALEIGH-DURHAM CLOUDY    68  64  87 SW9       29.99F
FORT BRAGG     CLOUDY    68  65  90 SW3       30.02F
FAYETTEVILLE   MOCLDY    68  64  87 S7        30.03R
BURLINGTON     CLOUDY    67  64  90 S3        29.99F
LAURINBURG     CLOUDY    68  64  87 SW9G20    30.02F
$$

NCZ011-015-027-028-043-044-047-080-103-020600-
NORTHEASTERN NORTH CAROLINA

CITY           SKY/WX    TMP DP  RH WIND       PRES   REMARKS
ROCKY MT-WILSO CLOUDY    67  66  97 S6        30.00F
GREENVILLE     CLOUDY    68  68 100 S6        30.04F
WASHINGTON     CLOUDY    66  65  95 S5        30.03S
ELIZABETH CITY CLOUDY    66  64  93 S7        30.02F
MANTEO         NOT AVBL
CAPE HATTERAS  MOCLDY    68  66  93 SW6       30.05F
$$

NCZ078-087-090-091-093-098-101-020600-
SOUTHEASTERN NORTH CAROLINA

CITY           SKY/WX    TMP DP  RH WIND       PRES   REMARKS
LUMBERTON      MOCLDY    67  64  90 S5        30.02S
GOLDSBORO      MOCLDY    68  68 100 S2        30.02R
KINSTON        MOCLDY    67  67  97 S6        30.04S FOG
KENANSVILLE    MOCLDY    66  65  97 CALM      30.05R FOG
NEW BERN       CLOUDY    66  64  93 S3        30.06R
CHERRY POINT   CLOUDY    70  67  90 SW7       30.06R
BEAUFORT       CLOUDY    69  67  93 SW5       30.06R
JACKSONVILLE   MOCLDY    69  66  90 CALM      30.04R
WILMINGTON     CLOUDY    66  65  96 CALM      30.04R
$$





USA.gov is the U.S. government's official web portal to all federal, state and local government web resources and services.